Weather in San Antonio

United States     29°25′33″N   98°29′28″W
temp.,
°C
wind,
m/s
gust,
m/s
humid.,
%
clouds,
%
prec.,
mm/h
press.,
hPa
HPBL,
m
7 may, fri
fri701:00+20ene24690 0.0 1021107
04:00+18e2378100 0.0 102091
07:00+17ene2381100 0.0 102186
10:00+22se346076 0.0 1022523
13:00+28sse45362 0.0 10201464
16:00+30se673061 0.0 10171710
19:00+27se78405 0.0 10151206
22:00+21sse612661 0.0 1016600
8 may, sat
sat801:00+19sse31194100 0.0 1017523
04:00+20sse41092100 0.1 1015682
07:00+20sse31195100 0.3 1014572
10:00+22s61185100 0.2 1014949
13:00+27sse6105642 0.3 10121578
16:00+33s893515 0.0 10082483
19:00+29se912542 0.0 10071202
22:00+23sse71681100 0.1 1009788
9 may, sun
sun901:00+22sse8168861 0.2 1009768
04:00+23s61285100 0.1 1008937
07:00+22sse498892 0.1 1009819
10:00+25s6874100 0.2 10101047
13:00+28ssw475991 0.3 10091339
16:00+34ssw34370 0.0 10051993
19:00+34sw233536 0.0 10051010
22:00+25se61081100 0.0 1007366
10 may, mon
mon1001:00+23sse41192100 0.0 1008435
04:00+22sse399644 0.0 1008361
07:00+22s2697100 0.0 1009215
10:00+27se347099 0.0 1010673
13:00+33se5644100 0.0 10091592
16:00+35ese66385 0.0 10072414
19:00+32ese88488 0.0 10071524
22:00+26ese71174100 0.0 1010745
11 may, tue
tue1101:00+20nne71193100 12.9 1014448
04:00+19ne61296100 13.3 1014361
07:00+20e61497100 16.8 1014465
10:00+23e6108578 0.0 1015687
13:00+28se796297 0.1 10141632
16:00+29se685291 0.2 10121789
19:00+27ese6116183 0.3 1012571
22:00+24ese61277100 0.0 1014668